Kuiper-00074

operational
NORAD ID: 64821 Int'l Des: 2025-151 Owner: KUIP Country: US Constellation: kuiper
LEOCIRCULAR

Kuiper-00074について

説明を読み込み中...

リアルタイム位置

3D地球を読み込み中...

次回通過

高度履歴

Altitude vs Time

uPlot chart will show altitude changes over time

軌道要素

1 64821U 25151F 25340.37698460 .00009706 00000-0 12978-2 0 9993
2 64821 51.9028 343.2164 0013481 325.2548 34.7533 14.79964425 21624
Epoch: Dec 6, 2025 • Age: 22 hours

現在のステータス

高度 638.6 km
速度 7.54 km/s
衛星直下点 -8.60°S, 14.99°W
打ち上げ日 Jul 16, 2025
運用期間 0.3 years
タイプ internet

技術仕様

分類 Payload
質量 490.00 kg
乾燥質量 490.00 kg
総質量 490.00 kg
長さ 1.80 m
直径 0.70 m
スパン 5.00 m
形状 Box + 2 pan
製造者 KUIP
バスタイプ Kuiper
フェーズステータス In Orbit
所有者/国 KUIP/US

大規模コンステレーション

Loading constellations...